This is the latest recevied weather packets stored in our database for station/object DL1GHN-6. If no packets are shown the sender has not sent any weather packets the latest 1 day(s).
| Time | Temp. | Humidity | Pressure | Rain* | Wind** | Luminosity | Snow |
|---|---|---|---|---|---|---|---|
| 1778013619 | 13.89° C | 85% | 1008.3 hPa | 0 mm | 1.79 m/s, 155° | 0 W/m² | - |
| 1778013319 | 13.89° C | 85% | 1008.3 hPa | 0 mm | 1.79 m/s, 196° | 0 W/m² | - |
| 1778013017 | 13.89° C | 85% | 1008.3 hPa | 0 mm | 1.79 m/s, 206° | 0 W/m² | - |
| 1778012717 | 14.44° C | 84% | 1008.2 hPa | 0 mm | 1.79 m/s, 227° | 0 W/m² | - |
| 1778012417 | 14.44° C | 85% | 1008.2 hPa | 0 mm | 1.79 m/s, 159° | 0 W/m² | - |
| 1778012117 | 14.44° C | 85% | 1008.1 hPa | 0 mm | 1.34 m/s, 159° | 0 W/m² | - |
| 1778011818 | 14.44° C | 84% | 1008.2 hPa | 0 mm | 1.79 m/s, 171° | 0 W/m² | - |
| 1778011517 | 14.44° C | 84% | 1008.1 hPa | 0 mm | 1.34 m/s, 175° | 0 W/m² | - |
| 1778011218 | 14.44° C | 84% | 1008.1 hPa | 0 mm | 1.79 m/s, 188° | 0 W/m² | - |
| 1778010917 | 14.44° C | 85% | 1008 hPa | 0 mm | 2.24 m/s, 203° | 0 W/m² | - |
| 1778010617 | 14.44° C | 85% | 1008.1 hPa | 0 mm | 1.34 m/s, 165° | 0 W/m² | - |
| 1778010318 | 14.44° C | 85% | 1008 hPa | 0 mm | 1.79 m/s, 177° | 0 W/m² | - |
| 1778010018 | 14.44° C | 85% | 1008 hPa | 0 mm | 1.34 m/s, 199° | 0 W/m² | - |
| 1778009718 | 14.44° C | 86% | 1008 hPa | 0 mm | 0.89 m/s, 220° | 0 W/m² | - |
| 1778009418 | 14.44° C | 86% | 1007.9 hPa | 0 mm | 1.34 m/s, 165° | 0 W/m² | - |
| 1778009117 | 14.44° C | 86% | 1007.9 hPa | 0 mm | 1.34 m/s, 171° | 0 W/m² | - |
| 1778008818 | 14.44° C | 87% | 1007.8 hPa | 0 mm | 2.24 m/s, 155° | 0 W/m² | - |
| 1778008519 | 14.44° C | 87% | 1007.8 hPa | 0 mm | 1.34 m/s, 183° | 0 W/m² | - |
| 1778008218 | 14.44° C | 87% | 1007.6 hPa | 0 mm | 1.34 m/s, 189° | 0 W/m² | - |
| 1778007918 | 14.44° C | 87% | 1007.6 hPa | 0 mm | 0.89 m/s, 164° | 0 W/m² | - |
| 1778007618 | 14.44° C | 87% | 1007.6 hPa | 0 mm | 0.45 m/s, 165° | 0 W/m² | - |
| 1778007319 | 14.44° C | 87% | 1007.6 hPa | 0 mm | 0.45 m/s, 165° | 0 W/m² | - |
| 1778007017 | 14.44° C | 86% | 1007.6 hPa | 0 mm | 0.89 m/s, 150° | 0 W/m² | - |
| 1778006717 | 14.44° C | 86% | 1007.6 hPa | 0 mm | 0.45 m/s, 147° | 0 W/m² | - |
| 1778006418 | 14.44° C | 86% | 1007.6 hPa | 0 mm | 0 m/s | 0 W/m² | - |
* Rain latest hour (hover to see other rain measurements)
** Current wind speed in m/s (hover to see current wind gust speed)